iso_date,epoch_date,Year,Hour,Min,DOY,POS_DOY,Lat,Lon,BP,Ts,Ta,has_bp,has_ts,has_ta,BuoyID,Buoy_Type,Buoy_Owner,Logistics,Hemisphere
2021-11-23T16:00:02Z,1637683203,2021,16,0,327.6667,327.6667,65.507,-38.023,1022.8,-0.69,-999.0,yes,yes,no,300234068341510,BD2GHI,AOML,ALLIANCE,North
2021-11-23T16:59:57Z,1637686797,2021,17,0,327.7083,327.7083,65.511,-38.088,1024.9,-0.69,-999.0,yes,yes,no,300234068341510,BD2GHI,AOML,ALLIANCE,North
2021-11-23T18:00:00Z,1637690400,2021,18,0,327.75,327.75,65.512,-38.147,1025.7,-0.68,-999.0,yes,yes,no,300234068341510,BD2GHI,AOML,ALLIANCE,North
2021-11-23T19:00:02Z,1637694003,2021,19,0,327.7917,327.7917,65.51,-38.209,1026.7,-0.69,-999.0,yes,yes,no,300234068341510,BD2GHI,AOML,ALLIANCE,North
2021-11-23T19:59:57Z,1637697597,2021,20,0,327.8333,327.8333,65.504,-38.269,1028.4,-0.72,-999.0,yes,yes,no,300234068341510,BD2GHI,AOML,ALLIANCE,North
2021-11-23T21:00:00Z,1637701200,2021,21,0,327.875,327.875,65.495,-38.328,1030.2,-0.72,-999.0,yes,yes,no,300234068341510,BD2GHI,AOML,ALLIANCE,North
2021-11-23T22:00:02Z,1637704803,2021,22,0,327.9167,327.9167,65.486,-38.385,1031.4,-0.73,-999.0,yes,yes,no,300234068341510,BD2GHI,AOML,ALLIANCE,North
2021-11-23T22:59:57Z,1637708397,2021,23,0,327.9583,327.9583,65.474,-38.439,1032.3,-0.73,-999.0,yes,yes,no,300234068341510,BD2GHI,AOML,ALLIANCE,North
2021-11-24T00:00:00Z,1637712000,2021,0,0,328.0,328.0,65.47,-38.501,1033.0,-0.73,-999.0,yes,yes,no,300234068341510,BD2GHI,AOML,ALLIANCE,North
2021-11-24T01:01:03Z,1637715663,2021,1,1,328.0424,328.0424,65.439,-38.542,1033.2,-0.68,-999.0,yes,yes,no,300234068341510,BD2GHI,AOML,ALLIANCE,North
2021-11-24T01:59:57Z,1637719197,2021,2,0,328.0833,328.0833,65.419,-38.588,1034.4,-0.66,-999.0,yes,yes,no,300234068341510,BD2GHI,AOML,ALLIANCE,North
2021-11-24T03:00:00Z,1637722800,2021,3,0,328.125,328.125,65.399,-38.634,1035.1,-0.62,-999.0,yes,yes,no,300234068341510,BD2GHI,AOML,ALLIANCE,North
2021-11-24T04:00:02Z,1637726403,2021,4,0,328.1667,328.1667,65.381,-38.681,1036.3,-0.63,-999.0,yes,yes,no,300234068341510,BD2GHI,AOML,ALLIANCE,North
2021-11-24T04:59:57Z,1637729997,2021,5,0,328.2083,328.2083,65.365,-38.729,1035.9,-0.65,-999.0,yes,yes,no,300234068341510,BD2GHI,AOML,ALLIANCE,North
2021-11-24T06:00:00Z,1637733600,2021,6,0,328.25,328.25,65.348,-38.774,1035.7,-0.65,-999.0,yes,yes,no,300234068341510,BD2GHI,AOML,ALLIANCE,North
2021-11-24T07:00:02Z,1637737203,2021,7,0,328.2917,328.2917,65.332,-38.815,1036.3,-0.66,-999.0,yes,yes,no,300234068341510,BD2GHI,AOML,ALLIANCE,North
2021-11-24T07:59:57Z,1637740797,2021,8,0,328.3333,328.3333,65.32,-38.857,1036.5,-0.65,-999.0,yes,yes,no,300234068341510,BD2GHI,AOML,ALLIANCE,North
2021-11-24T09:00:00Z,1637744400,2021,9,0,328.375,328.375,65.307,-38.9,1036.3,-0.58,-999.0,yes,yes,no,300234068341510,BD2GHI,AOML,ALLIANCE,North
2021-11-24T10:00:02Z,1637748003,2021,10,0,328.4167,328.4167,65.295,-38.94,1035.9,-0.61,-999.0,yes,yes,no,300234068341510,BD2GHI,AOML,ALLIANCE,North
2021-11-24T10:59:57Z,1637751597,2021,11,0,328.4583,328.4583,65.285,-38.976,1036.0,-0.63,-999.0,yes,yes,no,300234068341510,BD2GHI,AOML,ALLIANCE,North
2021-11-24T12:01:00Z,1637755260,2021,12,1,328.5007,328.5007,65.276,-39.007,1034.9,-0.61,-999.0,yes,yes,no,300234068341510,BD2GHI,AOML,ALLIANCE,North
2021-11-24T13:00:02Z,1637758803,2021,13,0,328.5417,328.5417,65.269,-39.034,1034.3,-0.62,-999.0,yes,yes,no,300234068341510,BD2GHI,AOML,ALLIANCE,North
2021-11-24T13:59:57Z,1637762397,2021,14,0,328.5833,328.5833,65.263,-39.056,1033.4,-0.63,-999.0,yes,yes,no,300234068341510,BD2GHI,AOML,ALLIANCE,North
2021-11-24T15:00:00Z,1637766000,2021,15,0,328.625,328.625,65.253,-39.071,1032.4,-0.6,-999.0,yes,yes,no,300234068341510,BD2GHI,AOML,ALLIANCE,North
2021-11-24T16:00:02Z,1637769603,2021,16,0,328.6667,328.6667,65.247,-39.089,1031.2,-0.59,-999.0,yes,yes,no,300234068341510,BD2GHI,AOML,ALLIANCE,North
2021-11-24T16:59:57Z,1637773197,2021,17,0,328.7083,328.7083,65.242,-39.105,1029.9,-0.6,-999.0,yes,yes,no,300234068341510,BD2GHI,AOML,ALLIANCE,North
2021-11-24T18:00:00Z,1637776800,2021,18,0,328.75,328.75,65.236,-39.121,1029.1,-0.62,-999.0,yes,yes,no,300234068341510,BD2GHI,AOML,ALLIANCE,North
2021-11-24T19:00:02Z,1637780403,2021,19,0,328.7917,328.7917,65.23,-39.134,1028.3,-0.61,-999.0,yes,yes,no,300234068341510,BD2GHI,AOML,ALLIANCE,North
2021-11-24T19:59:57Z,1637783997,2021,20,0,328.8333,328.8333,65.227,-39.152,1027.9,-0.57,-999.0,yes,yes,no,300234068341510,BD2GHI,AOML,ALLIANCE,North
2021-11-24T21:00:00Z,1637787600,2021,21,0,328.875,328.875,65.216,-39.159,1026.6,-0.62,-999.0,yes,yes,no,300234068341510,BD2GHI,AOML,ALLIANCE,North
2021-11-24T22:00:02Z,1637791203,2021,22,0,328.9167,328.9167,65.211,-39.155,1025.7,-0.57,-999.0,yes,yes,no,300234068341510,BD2GHI,AOML,ALLIANCE,North
2021-11-24T22:59:57Z,1637794797,2021,23,0,328.9583,328.9583,65.205,-39.159,1024.1,-0.58,-999.0,yes,yes,no,300234068341510,BD2GHI,AOML,ALLIANCE,North
2021-11-25T00:00:00Z,1637798400,2021,0,0,329.0,329.0,65.199,-39.169,1023.1,-0.57,-999.0,yes,yes,no,300234068341510,BD2GHI,AOML,ALLIANCE,North
2021-11-25T01:00:02Z,1637802003,2021,1,0,329.0417,329.0417,65.188,-39.171,1021.9,-0.56,-999.0,yes,yes,no,300234068341510,BD2GHI,AOML,ALLIANCE,North
2021-11-25T01:59:57Z,1637805597,2021,2,0,329.0833,329.0833,65.18,-39.179,1020.1,-0.51,-999.0,yes,yes,no,300234068341510,BD2GHI,AOML,ALLIANCE,North
2021-11-25T03:00:00Z,1637809200,2021,3,0,329.125,329.125,65.171,-39.188,1018.8,-0.59,-999.0,yes,yes,no,300234068341510,BD2GHI,AOML,ALLIANCE,North
2021-11-25T04:00:02Z,1637812803,2021,4,0,329.1667,329.1667,65.162,-39.198,1018.0,-0.56,-999.0,yes,yes,no,300234068341510,BD2GHI,AOML,ALLIANCE,North
2021-11-25T04:59:57Z,1637816397,2021,5,0,329.2083,329.2083,65.154,-39.208,1017.6,-0.56,-999.0,yes,yes,no,300234068341510,BD2GHI,AOML,ALLIANCE,North
2021-11-25T06:01:00Z,1637820060,2021,6,1,329.2507,329.2507,65.146,-39.217,1017.3,-0.63,-999.0,yes,yes,no,300234068341510,BD2GHI,AOML,ALLIANCE,North
2021-11-25T07:00:02Z,1637823603,2021,7,0,329.2917,329.2917,65.138,-39.227,1017.4,-0.89,-999.0,yes,yes,no,300234068341510,BD2GHI,AOML,ALLIANCE,North
2021-11-25T07:59:57Z,1637827197,2021,8,0,329.3333,329.3333,65.131,-39.237,1018.2,-0.67,-999.0,yes,yes,no,300234068341510,BD2GHI,AOML,ALLIANCE,North
2021-11-25T09:00:00Z,1637830800,2021,9,0,329.375,329.375,65.123,-39.247,1018.4,-0.75,-999.0,yes,yes,no,300234068341510,BD2GHI,AOML,ALLIANCE,North
2021-11-25T10:00:02Z,1637834403,2021,10,0,329.4167,329.4167,65.114,-39.256,1019.4,-0.59,-999.0,yes,yes,no,300234068341510,BD2GHI,AOML,ALLIANCE,North
2021-11-25T12:00:00Z,1637841600,2021,12,0,329.5,329.5,65.093,-39.274,1020.8,-0.61,-999.0,yes,yes,no,300234068341510,BD2GHI,AOML,ALLIANCE,North
2021-11-25T13:00:02Z,1637845203,2021,13,0,329.5417,329.5417,65.083,-39.284,1021.5,-0.61,-999.0,yes,yes,no,300234068341510,BD2GHI,AOML,ALLIANCE,North
2021-11-25T13:59:57Z,1637848797,2021,14,0,329.5833,329.5833,65.073,-39.296,1022.8,-0.61,-999.0,yes,yes,no,300234068341510,BD2GHI,AOML,ALLIANCE,North
2021-11-25T15:00:00Z,1637852400,2021,15,0,329.625,329.625,65.063,-39.31,1023.2,-0.59,-999.0,yes,yes,no,300234068341510,BD2GHI,AOML,ALLIANCE,North
2021-11-25T18:00:00Z,1637863200,2021,18,0,329.75,329.75,65.044,-39.358,1024.4,-0.6,-999.0,yes,yes,no,300234068341510,BD2GHI,AOML,ALLIANCE,North
2021-11-25T19:00:02Z,1637866803,2021,19,0,329.7917,329.7917,65.038,-39.378,1024.7,-0.6,-999.0,yes,yes,no,300234068341510,BD2GHI,AOML,ALLIANCE,North
2021-11-25T19:59:57Z,1637870397,2021,20,0,329.8333,329.8333,65.029,-39.402,1024.6,-0.62,-999.0,yes,yes,no,300234068341510,BD2GHI,AOML,ALLIANCE,North
2021-11-25T21:00:00Z,1637874000,2021,21,0,329.875,329.875,65.017,-39.423,1025.7,-1.03,-999.0,yes,yes,no,300234068341510,BD2GHI,AOML,ALLIANCE,North
2021-11-25T22:00:02Z,1637877603,2021,22,0,329.9167,329.9167,65.002,-39.441,1025.5,-0.66,-999.0,yes,yes,no,300234068341510,BD2GHI,AOML,ALLIANCE,North
2021-11-25T22:59:57Z,1637881197,2021,23,0,329.9583,329.9583,64.986,-39.453,1026.1,-0.68,-999.0,yes,yes,no,300234068341510,BD2GHI,AOML,ALLIANCE,North
2021-11-26T00:00:00Z,1637884800,2021,0,0,330.0,330.0,64.975,-39.466,1026.6,-0.7,-999.0,yes,yes,no,300234068341510,BD2GHI,AOML,ALLIANCE,North
2021-11-26T01:00:02Z,1637888403,2021,1,0,330.0417,330.0417,64.958,-39.459,1026.6,-0.72,-999.0,yes,yes,no,300234068341510,BD2GHI,AOML,ALLIANCE,North
2021-11-26T01:59:57Z,1637891997,2021,2,0,330.0833,330.0833,64.948,-39.461,1026.5,-0.83,-999.0,yes,yes,no,300234068341510,BD2GHI,AOML,ALLIANCE,North
2021-11-26T03:00:00Z,1637895600,2021,3,0,330.125,330.125,64.939,-39.46,1026.9,-0.91,-999.0,yes,yes,no,300234068341510,BD2GHI,AOML,ALLIANCE,North
2021-11-26T04:00:02Z,1637899203,2021,4,0,330.1667,330.1667,64.932,-39.46,1026.9,-0.96,-999.0,yes,yes,no,300234068341510,BD2GHI,AOML,ALLIANCE,North
2021-11-26T04:59:57Z,1637902797,2021,5,0,330.2083,330.2083,64.925,-39.462,1027.5,-0.99,-999.0,yes,yes,no,300234068341510,BD2GHI,AOML,ALLIANCE,North
2021-11-26T06:00:00Z,1637906400,2021,6,0,330.25,330.25,64.919,-39.465,1027.1,-0.91,-999.0,yes,yes,no,300234068341510,BD2GHI,AOML,ALLIANCE,North
2021-11-26T07:00:02Z,1637910003,2021,7,0,330.2917,330.2917,64.914,-39.469,1027.0,-0.83,-999.0,yes,yes,no,300234068341510,BD2GHI,AOML,ALLIANCE,North
2021-11-26T07:59:57Z,1637913597,2021,8,0,330.3333,330.3333,64.907,-39.479,1027.1,-0.75,-999.0,yes,yes,no,300234068341510,BD2GHI,AOML,ALLIANCE,North
2021-11-26T09:00:00Z,1637917200,2021,9,0,330.375,330.375,64.899,-39.494,1026.8,-0.78,-999.0,yes,yes,no,300234068341510,BD2GHI,AOML,ALLIANCE,North
2021-11-26T10:00:02Z,1637920803,2021,10,0,330.4167,330.4167,64.891,-39.51,1027.4,-0.83,-999.0,yes,yes,no,300234068341510,BD2GHI,AOML,ALLIANCE,North
2021-11-26T10:59:57Z,1637924397,2021,11,0,330.4583,330.4583,64.881,-39.53,1027.0,-0.75,-999.0,yes,yes,no,300234068341510,BD2GHI,AOML,ALLIANCE,North
2021-11-26T12:00:00Z,1637928000,2021,12,0,330.5,330.5,64.871,-39.558,1026.8,-0.76,-999.0,yes,yes,no,300234068341510,BD2GHI,AOML,ALLIANCE,North
2021-11-26T13:00:02Z,1637931603,2021,13,0,330.5417,330.5417,64.86,-39.584,1026.3,-0.77,-999.0,yes,yes,no,300234068341510,BD2GHI,AOML,ALLIANCE,North
2021-11-26T13:59:57Z,1637935197,2021,14,0,330.5833,330.5833,64.849,-39.615,1026.1,-0.75,-999.0,yes,yes,no,300234068341510,BD2GHI,AOML,ALLIANCE,North
2021-11-26T15:00:00Z,1637938800,2021,15,0,330.625,330.625,64.839,-39.641,1025.2,-0.75,-999.0,yes,yes,no,300234068341510,BD2GHI,AOML,ALLIANCE,North
2021-11-26T16:00:02Z,1637942403,2021,16,0,330.6667,330.6667,64.828,-39.668,1024.6,-0.75,-999.0,yes,yes,no,300234068341510,BD2GHI,AOML,ALLIANCE,North
2021-11-26T16:59:57Z,1637945997,2021,17,0,330.7083,330.7083,64.817,-39.695,1023.9,-0.75,-999.0,yes,yes,no,300234068341510,BD2GHI,AOML,ALLIANCE,North
2021-11-26T18:00:00Z,1637949600,2021,18,0,330.75,330.75,64.808,-39.72,1023.1,-0.92,-999.0,yes,yes,no,300234068341510,BD2GHI,AOML,ALLIANCE,North
2021-11-26T19:00:02Z,1637953203,2021,19,0,330.7917,330.7917,64.8,-39.739,1022.7,-0.85,-999.0,yes,yes,no,300234068341510,BD2GHI,AOML,ALLIANCE,North
2021-11-26T19:59:57Z,1637956797,2021,20,0,330.8333,330.8333,64.79,-39.755,1022.3,-0.8,-999.0,yes,yes,no,300234068341510,BD2GHI,AOML,ALLIANCE,North
2021-11-26T21:00:00Z,1637960400,2021,21,0,330.875,330.875,64.783,-39.771,1021.4,-0.78,-999.0,yes,yes,no,300234068341510,BD2GHI,AOML,ALLIANCE,North
2021-11-26T22:00:02Z,1637964003,2021,22,0,330.9167,330.9167,64.773,-39.787,1020.2,-0.78,-999.0,yes,yes,no,300234068341510,BD2GHI,AOML,ALLIANCE,North
2021-11-26T22:59:57Z,1637967597,2021,23,0,330.9583,330.9583,64.767,-39.809,1019.2,-0.78,-999.0,yes,yes,no,300234068341510,BD2GHI,AOML,ALLIANCE,North
2021-11-27T00:00:00Z,1637971200,2021,0,0,331.0,331.0,64.76,-39.83,1018.2,-0.76,-999.0,yes,yes,no,300234068341510,BD2GHI,AOML,ALLIANCE,North
2021-11-27T01:00:02Z,1637974803,2021,1,0,331.0417,331.0417,64.754,-39.848,1017.1,-0.77,-999.0,yes,yes,no,300234068341510,BD2GHI,AOML,ALLIANCE,North
2021-11-27T01:59:57Z,1637978397,2021,2,0,331.0833,331.0833,64.749,-39.866,1016.3,-0.74,-999.0,yes,yes,no,300234068341510,BD2GHI,AOML,ALLIANCE,North
2021-11-27T03:00:00Z,1637982000,2021,3,0,331.125,331.125,64.744,-39.883,1015.2,-0.8,-999.0,yes,yes,no,300234068341510,BD2GHI,AOML,ALLIANCE,North
2021-11-27T04:00:02Z,1637985603,2021,4,0,331.1667,331.1667,64.74,-39.9,1015.0,-0.78,-999.0,yes,yes,no,300234068341510,BD2GHI,AOML,ALLIANCE,North
2021-11-27T04:59:57Z,1637989197,2021,5,0,331.2083,331.2083,64.737,-39.917,1014.0,-0.85,-999.0,yes,yes,no,300234068341510,BD2GHI,AOML,ALLIANCE,North
2021-11-27T06:00:00Z,1637992800,2021,6,0,331.25,331.25,64.735,-39.934,1014.2,-0.79,-999.0,yes,yes,no,300234068341510,BD2GHI,AOML,ALLIANCE,North
2021-11-27T07:00:02Z,1637996403,2021,7,0,331.2917,331.2917,64.733,-39.95,1013.5,-0.7,-999.0,yes,yes,no,300234068341510,BD2GHI,AOML,ALLIANCE,North
2021-11-27T07:59:57Z,1637999997,2021,8,0,331.3333,331.3333,64.732,-39.966,1013.3,-0.7,-999.0,yes,yes,no,300234068341510,BD2GHI,AOML,ALLIANCE,North
2021-11-27T09:00:00Z,1638003600,2021,9,0,331.375,331.375,64.731,-39.981,1012.6,-0.71,-999.0,yes,yes,no,300234068341510,BD2GHI,AOML,ALLIANCE,North
2021-11-27T10:00:02Z,1638007203,2021,10,0,331.4167,331.4167,64.732,-39.997,1012.1,-0.75,-999.0,yes,yes,no,300234068341510,BD2GHI,AOML,ALLIANCE,North
2021-11-27T12:00:00Z,1638014400,2021,12,0,331.5,331.5,64.732,-40.03,1011.7,-0.8,-999.0,yes,yes,no,300234068341510,BD2GHI,AOML,ALLIANCE,North
2021-11-27T13:00:02Z,1638018003,2021,13,0,331.5417,331.5417,64.733,-40.049,1011.7,-0.79,-999.0,yes,yes,no,300234068341510,BD2GHI,AOML,ALLIANCE,North
2021-11-27T13:59:57Z,1638021597,2021,14,0,331.5833,331.5833,64.733,-40.068,1011.5,-0.81,-999.0,yes,yes,no,300234068341510,BD2GHI,AOML,ALLIANCE,North
2021-11-27T15:00:00Z,1638025200,2021,15,0,331.625,331.625,64.731,-40.086,1011.9,-0.8,-999.0,yes,yes,no,300234068341510,BD2GHI,AOML,ALLIANCE,North
2021-11-27T16:00:02Z,1638028803,2021,16,0,331.6667,331.6667,64.73,-40.102,1012.2,-0.79,-999.0,yes,yes,no,300234068341510,BD2GHI,AOML,ALLIANCE,North
2021-11-27T16:59:57Z,1638032397,2021,17,0,331.7083,331.7083,64.728,-40.117,1012.7,-0.79,-999.0,yes,yes,no,300234068341510,BD2GHI,AOML,ALLIANCE,North
2021-11-27T18:00:00Z,1638036000,2021,18,0,331.75,331.75,64.724,-40.13,1013.0,-0.8,-999.0,yes,yes,no,300234068341510,BD2GHI,AOML,ALLIANCE,North
2021-11-27T19:00:02Z,1638039603,2021,19,0,331.7917,331.7917,64.72,-40.143,1013.1,-0.79,-999.0,yes,yes,no,300234068341510,BD2GHI,AOML,ALLIANCE,North
2021-11-27T19:59:57Z,1638043197,2021,20,0,331.8333,331.8333,64.715,-40.155,1013.7,-0.81,-999.0,yes,yes,no,300234068341510,BD2GHI,AOML,ALLIANCE,North
2021-11-27T21:00:00Z,1638046800,2021,21,0,331.875,331.875,64.708,-40.165,1013.3,-0.85,-999.0,yes,yes,no,300234068341510,BD2GHI,AOML,ALLIANCE,North
2021-11-27T22:00:02Z,1638050403,2021,22,0,331.9167,331.9167,64.701,-40.173,1013.8,-0.86,-999.0,yes,yes,no,300234068341510,BD2GHI,AOML,ALLIANCE,North
2021-11-27T22:59:57Z,1638053997,2021,23,0,331.9583,331.9583,64.692,-40.175,1013.9,-0.86,-999.0,yes,yes,no,300234068341510,BD2GHI,AOML,ALLIANCE,North
2021-11-28T00:00:00Z,1638057600,2021,0,0,332.0,332.0,64.687,-40.174,1013.6,-0.87,-999.0,yes,yes,no,300234068341510,BD2GHI,AOML,ALLIANCE,North
2021-11-28T01:00:02Z,1638061203,2021,1,0,332.0417,332.0417,64.683,-40.175,1013.0,-0.89,-999.0,yes,yes,no,300234068341510,BD2GHI,AOML,ALLIANCE,North
2021-11-28T01:59:57Z,1638064797,2021,2,0,332.0833,332.0833,64.68,-40.174,1012.5,-0.84,-999.0,yes,yes,no,300234068341510,BD2GHI,AOML,ALLIANCE,North
2021-11-28T03:00:00Z,1638068400,2021,3,0,332.125,332.125,64.678,-40.172,1012.6,-0.82,-999.0,yes,yes,no,300234068341510,BD2GHI,AOML,ALLIANCE,North
2021-11-28T04:01:03Z,1638072063,2021,4,1,332.1674,332.1674,64.676,-40.171,1012.1,-0.75,-999.0,yes,yes,no,300234068341510,BD2GHI,AOML,ALLIANCE,North
2021-11-28T04:59:57Z,1638075597,2021,5,0,332.2083,332.2083,64.674,-40.171,1011.8,-0.76,-999.0,yes,yes,no,300234068341510,BD2GHI,AOML,ALLIANCE,North
2021-11-28T06:00:00Z,1638079200,2021,6,0,332.25,332.25,64.675,-40.172,1011.4,-0.76,-999.0,yes,yes,no,300234068341510,BD2GHI,AOML,ALLIANCE,North
2021-11-28T07:00:02Z,1638082803,2021,7,0,332.2917,332.2917,64.677,-40.175,1011.0,-0.76,-999.0,yes,yes,no,300234068341510,BD2GHI,AOML,ALLIANCE,North
2021-11-28T07:59:57Z,1638086397,2021,8,0,332.3333,332.3333,64.679,-40.182,1010.5,-0.84,-999.0,yes,yes,no,300234068341510,BD2GHI,AOML,ALLIANCE,North
2021-11-28T09:00:00Z,1638090000,2021,9,0,332.375,332.375,64.679,-40.197,1010.0,-1.06,-999.0,yes,yes,no,300234068341510,BD2GHI,AOML,ALLIANCE,North
2021-11-28T10:00:02Z,1638093603,2021,10,0,332.4167,332.4167,64.676,-40.211,1009.7,-0.92,-999.0,yes,yes,no,300234068341510,BD2GHI,AOML,ALLIANCE,North
2021-11-28T11:00:57Z,1638097258,2021,11,1,332.459,332.459,64.67,-40.216,1009.2,-0.99,-999.0,yes,yes,no,300234068341510,BD2GHI,AOML,ALLIANCE,North
2021-11-28T13:00:02Z,1638104403,2021,13,0,332.5417,332.5417,64.662,-40.207,1008.8,-1.01,-999.0,yes,yes,no,300234068341510,BD2GHI,AOML,ALLIANCE,North
2021-11-28T13:59:57Z,1638107997,2021,14,0,332.5833,332.5833,64.661,-40.198,1008.9,-1.1,-999.0,yes,yes,no,300234068341510,BD2GHI,AOML,ALLIANCE,North
2021-11-28T15:00:00Z,1638111600,2021,15,0,332.625,332.625,64.663,-40.192,1008.2,-1.06,-999.0,yes,yes,no,300234068341510,BD2GHI,AOML,ALLIANCE,North
2021-11-28T16:00:02Z,1638115203,2021,16,0,332.6667,332.6667,64.666,-40.196,1007.9,-1.01,-999.0,yes,yes,no,300234068341510,BD2GHI,AOML,ALLIANCE,North
2021-11-28T16:59:57Z,1638118797,2021,17,0,332.7083,332.7083,64.668,-40.204,1008.0,-0.89,-999.0,yes,yes,no,300234068341510,BD2GHI,AOML,ALLIANCE,North
2021-11-28T18:00:00Z,1638122400,2021,18,0,332.75,332.75,64.667,-40.212,1008.1,-0.85,-999.0,yes,yes,no,300234068341510,BD2GHI,AOML,ALLIANCE,North
2021-11-28T19:00:02Z,1638126003,2021,19,0,332.7917,332.7917,64.665,-40.221,1008.2,-0.75,-999.0,yes,yes,no,300234068341510,BD2GHI,AOML,ALLIANCE,North
2021-11-28T19:59:57Z,1638129597,2021,20,0,332.8333,332.8333,64.66,-40.226,1008.3,-0.83,-999.0,yes,yes,no,300234068341510,BD2GHI,AOML,ALLIANCE,North
2021-11-28T21:00:00Z,1638133200,2021,21,0,332.875,332.875,64.654,-40.224,1007.8,-0.95,-999.0,yes,yes,no,300234068341510,BD2GHI,AOML,ALLIANCE,North
2021-11-28T22:00:02Z,1638136803,2021,22,0,332.9167,332.9167,64.65,-40.216,1008.1,-0.97,-999.0,yes,yes,no,300234068341510,BD2GHI,AOML,ALLIANCE,North
2021-11-28T22:59:57Z,1638140397,2021,23,0,332.9583,332.9583,64.649,-40.204,1008.1,-0.9,-999.0,yes,yes,no,300234068341510,BD2GHI,AOML,ALLIANCE,North
2021-11-29T00:00:00Z,1638144000,2021,0,0,333.0,333.0,64.651,-40.199,1008.6,-0.82,-999.0,yes,yes,no,300234068341510,BD2GHI,AOML,ALLIANCE,North
2021-11-29T01:00:02Z,1638147603,2021,1,0,333.0417,333.0417,64.653,-40.205,1008.9,-0.87,-999.0,yes,yes,no,300234068341510,BD2GHI,AOML,ALLIANCE,North
2021-11-29T01:59:57Z,1638151197,2021,2,0,333.0833,333.0833,64.65,-40.216,1009.6,-0.86,-999.0,yes,yes,no,300234068341510,BD2GHI,AOML,ALLIANCE,North
2021-11-29T03:00:00Z,1638154800,2021,3,0,333.125,333.125,64.645,-40.221,1010.5,-0.88,-999.0,yes,yes,no,300234068341510,BD2GHI,AOML,ALLIANCE,North
2021-11-29T04:00:02Z,1638158403,2021,4,0,333.1667,333.1667,64.64,-40.218,1010.5,-0.77,-999.0,yes,yes,no,300234068341510,BD2GHI,AOML,ALLIANCE,North
2021-11-29T04:59:57Z,1638161997,2021,5,0,333.2083,333.2083,64.64,-40.215,1010.7,-0.73,-999.0,yes,yes,no,300234068341510,BD2GHI,AOML,ALLIANCE,North
2021-11-29T06:00:00Z,1638165600,2021,6,0,333.25,333.25,64.641,-40.217,1011.5,-0.76,-999.0,yes,yes,no,300234068341510,BD2GHI,AOML,ALLIANCE,North
2021-11-29T07:00:02Z,1638169203,2021,7,0,333.2917,333.2917,64.64,-40.216,1011.8,-0.88,-999.0,yes,yes,no,300234068341510,BD2GHI,AOML,ALLIANCE,North
2021-11-29T07:59:57Z,1638172797,2021,8,0,333.3333,333.3333,64.64,-40.216,1012.0,-0.94,-999.0,yes,yes,no,300234068341510,BD2GHI,AOML,ALLIANCE,North
2021-11-29T09:00:00Z,1638176400,2021,9,0,333.375,333.375,64.64,-40.215,1012.6,-0.83,-999.0,yes,yes,no,300234068341510,BD2GHI,AOML,ALLIANCE,North
2021-11-29T10:00:02Z,1638180003,2021,10,0,333.4167,333.4167,64.638,-40.216,1012.9,-0.71,-999.0,yes,yes,no,300234068341510,BD2GHI,AOML,ALLIANCE,North
2021-11-29T10:59:57Z,1638183597,2021,11,0,333.4583,333.4583,64.636,-40.219,1013.4,-0.72,-999.0,yes,yes,no,300234068341510,BD2GHI,AOML,ALLIANCE,North
2021-11-29T13:00:02Z,1638190803,2021,13,0,333.5417,333.5417,64.629,-40.224,1014.5,-0.7,-999.0,yes,yes,no,300234068341510,BD2GHI,AOML,ALLIANCE,North
2021-11-29T13:59:57Z,1638194397,2021,14,0,333.5833,333.5833,64.625,-40.222,1014.5,-0.71,-999.0,yes,yes,no,300234068341510,BD2GHI,AOML,ALLIANCE,North
2021-11-29T15:02:00Z,1638198121,2021,15,2,333.6264,333.6264,64.621,-40.218,1014.3,-0.73,-999.0,yes,yes,no,300234068341510,BD2GHI,AOML,ALLIANCE,North
2021-11-29T16:01:03Z,1638201663,2021,16,1,333.6674,333.6674,64.62,-40.216,1014.5,-0.73,-999.0,yes,yes,no,300234068341510,BD2GHI,AOML,ALLIANCE,North
2021-11-29T16:59:57Z,1638205197,2021,17,0,333.7083,333.7083,64.617,-40.207,1014.7,-0.74,-999.0,yes,yes,no,300234068341510,BD2GHI,AOML,ALLIANCE,North
2021-11-29T18:00:00Z,1638208800,2021,18,0,333.75,333.75,64.612,-40.198,1015.0,-0.76,-999.0,yes,yes,no,300234068341510,BD2GHI,AOML,ALLIANCE,North
2021-11-29T19:00:02Z,1638212403,2021,19,0,333.7917,333.7917,64.61,-40.192,1015.3,-0.76,-999.0,yes,yes,no,300234068341510,BD2GHI,AOML,ALLIANCE,North
2021-11-29T19:59:57Z,1638215997,2021,20,0,333.8333,333.8333,64.607,-40.187,1015.4,-0.77,-999.0,yes,yes,no,300234068341510,BD2GHI,AOML,ALLIANCE,North
2021-11-29T21:00:00Z,1638219600,2021,21,0,333.875,333.875,64.606,-40.182,1015.2,-0.77,-999.0,yes,yes,no,300234068341510,BD2GHI,AOML,ALLIANCE,North
2021-11-29T22:02:03Z,1638223324,2021,22,2,333.9181,333.9181,64.604,-40.179,1015.2,-0.78,-999.0,yes,yes,no,300234068341510,BD2GHI,AOML,ALLIANCE,North
2021-11-29T23:02:58Z,1638226979,2021,23,3,333.9604,333.9604,64.602,-40.174,1014.8,-0.78,-999.0,yes,yes,no,300234068341510,BD2GHI,AOML,ALLIANCE,North
2021-11-30T00:00:00Z,1638230400,2021,0,0,334.0,334.0,64.6,-40.171,1014.8,-0.79,-999.0,yes,yes,no,300234068341510,BD2GHI,AOML,ALLIANCE,North
2021-11-30T01:03:56Z,1638234236,2021,1,4,334.0444,334.0444,-90.0,-180.0,1014.4,-0.78,-999.0,yes,yes,no,300234068341510,BD2GHI,AOML,ALLIANCE,North
2021-11-30T02:01:58Z,1638237718,2021,2,2,334.0847,334.0847,64.596,-40.168,1013.8,-0.78,-999.0,yes,yes,no,300234068341510,BD2GHI,AOML,ALLIANCE,North
2021-11-30T03:00:00Z,1638241200,2021,3,0,334.125,334.125,64.594,-40.165,1013.5,-0.8,-999.0,yes,yes,no,300234068341510,BD2GHI,AOML,ALLIANCE,North
2021-11-30T04:03:56Z,1638245036,2021,4,4,334.1694,334.1694,-90.0,-180.0,1012.8,-0.83,-999.0,yes,yes,no,300234068341510,BD2GHI,AOML,ALLIANCE,North
2021-11-30T05:02:58Z,1638248579,2021,5,3,334.2104,334.2104,64.591,-40.155,1012.4,-0.83,-999.0,yes,yes,no,300234068341510,BD2GHI,AOML,ALLIANCE,North
2021-11-30T06:00:00Z,1638252000,2021,6,0,334.25,334.25,64.59,-40.151,1012.0,-0.84,-999.0,yes,yes,no,300234068341510,BD2GHI,AOML,ALLIANCE,North
2021-11-30T07:00:02Z,1638255603,2021,7,0,334.2917,334.2917,64.589,-40.146,1011.6,-0.85,-999.0,yes,yes,no,300234068341510,BD2GHI,AOML,ALLIANCE,North
2021-11-30T07:59:57Z,1638259197,2021,8,0,334.3333,334.3333,64.587,-40.142,1011.3,-0.83,-999.0,yes,yes,no,300234068341510,BD2GHI,AOML,ALLIANCE,North
2021-11-30T09:02:00Z,1638262921,2021,9,2,334.3764,334.3764,64.586,-40.14,1010.9,-0.82,-999.0,yes,yes,no,300234068341510,BD2GHI,AOML,ALLIANCE,North
2021-11-30T10:00:02Z,1638266403,2021,10,0,334.4167,334.4167,64.586,-40.14,1009.9,-0.88,-999.0,yes,yes,no,300234068341510,BD2GHI,AOML,ALLIANCE,North
2021-11-30T12:00:00Z,1638273600,2021,12,0,334.5,334.5,64.585,-40.145,1010.3,-0.94,-999.0,yes,yes,no,300234068341510,BD2GHI,AOML,ALLIANCE,North
2021-11-30T13:00:02Z,1638277203,2021,13,0,334.5417,334.5417,64.584,-40.148,1010.6,-1.0,-999.0,yes,yes,no,300234068341510,BD2GHI,AOML,ALLIANCE,North
2021-11-30T13:59:57Z,1638280797,2021,14,0,334.5833,334.5833,64.583,-40.153,1010.6,-1.2,-999.0,yes,yes,no,300234068341510,BD2GHI,AOML,ALLIANCE,North
2021-11-30T15:00:00Z,1638284400,2021,15,0,334.625,334.625,64.583,-40.159,1010.7,-1.21,-999.0,yes,yes,no,300234068341510,BD2GHI,AOML,ALLIANCE,North
2021-11-30T16:59:57Z,1638291597,2021,17,0,334.7083,334.7083,64.586,-40.17,1011.8,-1.18,-999.0,yes,yes,no,300234068341510,BD2GHI,AOML,ALLIANCE,North